Weather History for Flora, IL

Change the Weather History Date:

Friday, January 31, 2014

  Actual Average (KEVV) Record (KEVV)
Temperature  
Mean Temperature 34 °F 33 °F  
Max Temperature 37 °F 42 °F 68 °F (1989)
Min Temperature 32 °F 24 °F -14 °F (1965)
Degree Days  
Heating Degree Days 30 32  
Month to date heating degree days 1010  
Since 1 July heating degree days 2779  
Cooling Degree Days 0 0  
Month to date cooling degree days 0  
Year to date cooling degree days 0  
Moisture  
Dew Point 23 °F    
Average Humidity 65    
Maximum Humidity 100    
Minimum Humidity 39    
Precipitation  
Precipitation 0.01 in 0.11 in 2.08 in (1915)
Month to date precipitation 3.10  
Year to date precipitation 3.10  
Snow  
Snow 0.00 in 0.10 in 3.70 in (1951)
Month to date snowfall 3.4  
Since 1 July snowfall 6.9  
Snow Depth -    
Sea Level Pressure  
Sea Level Pressure 30.05 in    
Wind  
Wind Speed 6 mph (NE)    
Max Wind Speed 12 mph    
Max Gust Speed -    
Visibility 8 miles    
Events      
T = Trace of Precipitation, MM = Missing Value Source: NWS Daily Summary

Daily Weather History Graph

Daily Weather History Graph

Search for Another Location

Airport:

Trip Planner

Search our weather history database for the weather conditions in past years. The results will help you decide how hot, cold, wet, or windy it might be!

Date:

Astronomy

Jan. 31, 2014 Rise Set
Actual Time 7:00 AM CST 5:14 PM CST
Civil Twilight 6:32 AM CST 5:42 PM CST
Nautical Twilight 6:00 AM CST 6:14 PM CST
Astronomical Twilight 5:29 AM CST 6:45 PM CST
Moon 7:11 AM CST 6:37 PM CST
Length of Visible Light 11h 10m
Length of Day
10h 14m
New Moon, 1% of the Moon is Illuminated
Jan 31
New Moon
Feb 6
First Quarter
Feb 14
Full
Feb 22
Last Quarter
Mar 1
New

Hourly Weather History & Observations

Time (CST) Temp. Windchill Dew Point Humidity Pressure Visibility Wind Dir Wind Speed Gust Speed Precip Events Conditions
12:15 AM 36.7 °F 28.9 °F 16.0 °F 43% 30.01 in 10.0 mi SW 11.5 mph - N/A   Clear
12:35 AM 36.3 °F 29.5 °F 15.8 °F 43% 29.99 in 10.0 mi SW 9.2 mph - N/A   Clear
12:55 AM 35.6 °F 29.2 °F 15.8 °F 44% 29.98 in 10.0 mi SSW 8.1 mph - N/A   Clear
1:15 AM 34.5 °F 29.4 °F 16.5 °F 48% 29.99 in 10.0 mi SSW 5.8 mph - N/A   Clear
1:35 AM 35.2 °F 28.8 °F 16.9 °F 47% 29.99 in 10.0 mi SSW 8.1 mph - N/A   Clear
1:55 AM 35.2 °F 29.5 °F 16.2 °F 46% 30.00 in 10.0 mi SSW 6.9 mph - N/A   Clear
2:15 AM 34.7 °F 28.8 °F 15.8 °F 46% 30.00 in 10.0 mi South 6.9 mph - N/A   Clear
2:35 AM 34.3 °F 28.4 °F 15.4 °F 46% 30.02 in 10.0 mi SSW 6.9 mph - N/A   Clear
2:55 AM 34.5 °F 29.4 °F 15.6 °F 46% 30.02 in 10.0 mi SW 5.8 mph - N/A   Clear
3:15 AM 35.6 °F 29.9 °F 13.8 °F 41% 30.03 in 10.0 mi WSW 6.9 mph - N/A   Clear
3:35 AM 35.6 °F 29.9 °F 13.8 °F 41% 30.03 in 10.0 mi West 6.9 mph - N/A   Scattered Clouds
3:55 AM 36.1 °F 30.6 °F 13.3 °F 39% 30.04 in 10.0 mi West 6.9 mph - N/A   Clear
4:15 AM 36.1 °F 31.4 °F 13.3 °F 39% 30.03 in 10.0 mi WSW 5.8 mph - N/A   Scattered Clouds
4:35 AM 35.2 °F 31.2 °F 14.5 °F 43% 30.03 in 10.0 mi SW 4.6 mph - N/A   Clear
4:55 AM 35.2 °F - 14.5 °F 43% 30.04 in 10.0 mi Calm Calm - N/A   Clear
5:15 AM 35.2 °F 32.4 °F 14.0 °F 42% 30.04 in 10.0 mi West 3.5 mph - N/A   Clear
6:15 AM 33.4 °F - 16.0 °F 49% 30.05 in 10.0 mi Calm Calm - N/A   Clear
6:35 AM 33.1 °F - 18.5 °F 55% 30.05 in 10.0 mi Calm Calm - N/A   Clear
6:55 AM 32.2 °F - 18.9 °F 58% 30.06 in 10.0 mi Calm Calm - N/A   Clear
7:15 AM 32.2 °F - 18.3 °F 57% 30.06 in 10.0 mi Calm Calm - N/A   Clear
7:35 AM 32.2 °F - 18.7 °F 58% 30.08 in 10.0 mi Calm Calm - N/A   Clear
8:15 AM 32.7 °F 27.3 °F 22.5 °F 66% 30.10 in 10.0 mi North 5.8 mph - N/A   Clear
8:35 AM 32.0 °F 28.7 °F 23.4 °F 70% 30.11 in 10.0 mi North 3.5 mph - N/A   Scattered Clouds
8:55 AM 32.2 °F 27.7 °F 23.9 °F 72% 30.12 in 10.0 mi North 4.6 mph - N/A   Scattered Clouds
9:15 AM 32.5 °F 28.1 °F 24.4 °F 72% 30.12 in 10.0 mi North 4.6 mph - N/A   Scattered Clouds
9:35 AM 33.4 °F 29.1 °F 24.3 °F 69% 30.12 in 10.0 mi NNE 4.6 mph - N/A   Clear
9:55 AM 34.2 °F 31.2 °F 23.2 °F 64% 30.13 in 10.0 mi ENE 3.5 mph - N/A   Clear
10:15 AM 34.5 °F 31.6 °F 22.5 °F 61% 30.12 in 10.0 mi NE 3.5 mph - N/A   Clear
10:35 AM 35.1 °F - 23.5 °F 63% 30.13 in 10.0 mi Calm Calm - N/A   Clear
10:55 AM 35.2 °F 31.2 °F 23.2 °F 62% 30.11 in 10.0 mi NNE 4.6 mph - N/A   Clear
11:15 AM 35.8 °F 30.9 °F 24.3 °F 63% 30.12 in 10.0 mi NNW 5.8 mph - N/A   Clear
11:55 AM 36.0 °F 31.1 °F 23.7 °F 61% 30.10 in 10.0 mi NNE 5.8 mph - N/A   Clear
12:15 PM 37.0 °F 32.4 °F 24.3 °F 60% 30.10 in 10.0 mi NNE 5.8 mph - N/A   Clear
12:35 PM 37.0 °F 32.4 °F 24.1 °F 59% 30.09 in 10.0 mi NNE 5.8 mph - N/A   Clear
12:55 PM 37.4 °F 31.4 °F 22.8 °F 56% 30.07 in 10.0 mi ENE 8.1 mph - N/A   Clear
1:15 PM 37.9 °F 33.5 °F 22.5 °F 54% 30.09 in 10.0 mi NNE 5.8 mph - N/A   Clear
1:35 PM 37.0 °F 32.4 °F 22.3 °F 55% 30.07 in 10.0 mi NNE 5.8 mph - N/A   Clear
1:55 PM 37.0 °F 31.6 °F 23.7 °F 59% 30.08 in 10.0 mi NE 6.9 mph - N/A   Scattered Clouds
2:15 PM 36.1 °F 29.3 °F 23.7 °F 61% 30.06 in 10.0 mi NE 9.2 mph - N/A   Clear
2:35 PM 35.2 °F 28.1 °F 22.8 °F 61% 30.06 in 10.0 mi NNE 9.2 mph - N/A   Clear
2:55 PM 35.2 °F 28.1 °F 23.0 °F 61% 30.06 in 10.0 mi NE 9.2 mph - N/A   Clear
3:15 PM 35.1 °F 29.3 °F 23.0 °F 61% 30.07 in 10.0 mi NE 6.9 mph - N/A   Scattered Clouds
3:35 PM 35.2 °F 29.5 °F 23.4 °F 62% 30.06 in 10.0 mi NE 6.9 mph - N/A   Scattered Clouds
3:55 PM 35.2 °F 28.1 °F 23.4 °F 62% 30.06 in 10.0 mi NE 9.2 mph - N/A   Scattered Clouds
4:15 PM 34.7 °F 28.1 °F 23.5 °F 64% 30.05 in 10.0 mi NE 8.1 mph - N/A   Scattered Clouds
4:35 PM 34.7 °F 29.6 °F 23.5 °F 64% 30.05 in 10.0 mi NNE 5.8 mph - N/A   Mostly Cloudy
4:55 PM 34.3 °F 28.4 °F 23.5 °F 65% 30.05 in 10.0 mi NNE 6.9 mph - N/A   Mostly Cloudy
5:15 PM 34.3 °F 29.2 °F 23.9 °F 66% 30.05 in 10.0 mi NE 5.8 mph - N/A   Scattered Clouds
5:35 PM 34.3 °F 31.4 °F 23.9 °F 66% 30.06 in 10.0 mi ENE 3.5 mph - N/A   Mostly Cloudy
5:55 PM 34.3 °F 29.2 °F 23.9 °F 66% 30.04 in 10.0 mi East 5.8 mph - N/A   Mostly Cloudy
6:15 PM 34.3 °F 30.2 °F 24.1 °F 66% 30.06 in 10.0 mi NE 4.6 mph - N/A   Mostly Cloudy
6:35 PM 34.2 °F 30.0 °F 24.8 °F 69% 30.07 in 10.0 mi NE 4.6 mph - N/A   Mostly Cloudy
6:55 PM 33.4 °F 30.4 °F 27.1 °F 78% 30.07 in 5.0 mi ENE 3.5 mph - N/A   Drizzle
7:15 PM 32.2 °F 27.7 °F 28.6 °F 87% 30.06 in 4.0 mi NE 4.6 mph - N/A   Light Drizzle
7:35 PM 32.0 °F 27.5 °F 29.3 °F 90% 30.05 in 5.0 mi NE 4.6 mph - N/A   Scattered Clouds
7:55 PM 32.0 °F 26.4 °F 30.2 °F 93% 30.06 in 4.0 mi NE 5.8 mph - N/A   Clear
8:15 PM 32.0 °F 26.4 °F 31.1 °F 96% 30.06 in 5.0 mi NE 5.8 mph - N/A   Clear
8:35 PM 32.0 °F 26.4 °F 31.1 °F 96% 30.05 in 4.0 mi ENE 5.8 mph - N/A   Clear
8:55 PM 32.0 °F 26.4 °F 31.3 °F 97% 30.05 in 4.0 mi NE 5.8 mph - N/A   Clear
9:15 PM 32.0 °F 25.6 °F 31.8 °F 99% 30.04 in 2.5 mi ENE 6.9 mph - N/A   Mist
9:35 PM 32.0 °F 25.6 °F 32.0 °F 100% 30.03 in 2.0 mi East 6.9 mph - N/A   Mist
10:15 PM 32.4 °F 27.9 °F 32.4 °F 100% 30.02 in 1.2 mi ENE 4.6 mph - N/A   Overcast
10:35 PM 33.1 °F 28.7 °F 33.1 °F 100% 30.01 in 1.2 mi East 4.6 mph - N/A   Drizzle
10:55 PM 33.4 °F 30.4 °F 33.4 °F 100% 30.01 in 1.2 mi East 3.5 mph - N/A   Drizzle
11:35 PM 34.0 °F 31.0 °F 34.0 °F 100% 30.00 in 1.2 mi East 3.5 mph - N/A   Drizzle
11:55 PM 34.2 °F 30.0 °F 34.2 °F 100% 30.00 in 1.5 mi ESE 4.6 mph - 0.01 in   Drizzle